N2RF KHFD-KBDL

Flight info

Callsign N2RF
Flight time 0h 29m
Altitude VFR/025
Route
Aircraft C172/L-VGD/C

Departure

Time 2026-04-25 14:53
Airport Hartford Brainard Airport (KHFD)

Arrival

Time 2026-04-25 15:22
Airport Bradley International Airport (KBDL)
Time Latitude Longitude Altitude Speed Heading
2026-04-25 14:50 41.74112 -72.64943 21 ft 9 kts
2026-04-25 14:50 41.74168 -72.64932 21 ft 8 kts 10°
2026-04-25 14:50 41.74216 -72.64922 22 ft 6 kts 12°
2026-04-25 14:51 41.74258 -72.64913 22 ft 7 kts
2026-04-25 14:51 41.74326 -72.64898 22 ft 13 kts 22°
2026-04-25 14:51 41.74352 -72.64778 23 ft 15 kts 116°
2026-04-25 14:51 41.74292 -72.64745 23 ft 0 kts 189°
2026-04-25 14:52 41.74277 -72.64747 23 ft 15 kts 184°
2026-04-25 14:52 41.73829 -72.64841 58 ft 74 kts 185°
2026-04-25 14:52 41.73290 -72.64950 256 ft 79 kts 184°
2026-04-25 14:52 41.73103 -72.64964 320 ft 78 kts 156°
2026-04-25 14:53 41.73560 -72.64409 416 ft 100 kts 18°
2026-04-25 14:53 41.74281 -72.64397 570 ft 109 kts 347°
2026-04-25 14:53 41.74936 -72.64905 716 ft 114 kts 315°
2026-04-25 14:53 41.75481 -72.65690 827 ft 118 kts 318°
2026-04-25 14:54 41.76110 -72.66367 1067 ft 111 kts 329°
2026-04-25 14:54 41.76787 -72.66622 1411 ft 97 kts
2026-04-25 14:54 41.77405 -72.66363 1659 ft 93 kts 42°
2026-04-25 14:54 41.77839 -72.65687 1837 ft 93 kts 70°
2026-04-25 14:55 41.78169 -72.64933 1972 ft 103 kts 34°
2026-04-25 14:55 41.78904 -72.64737 2089 ft 111 kts 10°
2026-04-25 14:55 41.79680 -72.64644 2221 ft 113 kts
2026-04-25 14:55 41.80475 -72.64560 2355 ft 114 kts
2026-04-25 14:56 41.81295 -72.64493 2397 ft 122 kts
2026-04-25 14:56 41.82141 -72.64345 2512 ft 119 kts 20°
2026-04-25 14:56 41.82869 -72.63902 2772 ft 118 kts 28°
2026-04-25 14:56 41.83632 -72.63377 2945 ft 125 kts 34°
2026-04-25 14:57 41.84379 -72.62758 3183 ft 126 kts 33°
2026-04-25 14:57 41.85217 -72.62350 3378 ft 130 kts 17°
2026-04-25 14:57 41.86155 -72.62061 3231 ft 148 kts 15°
2026-04-25 14:57 41.87182 -72.61925 3216 ft 148 kts
2026-04-25 14:58 41.88232 -72.61976 3149 ft 152 kts 358°
2026-04-25 14:58 41.89262 -72.62158 3188 ft 148 kts 352°
2026-04-25 14:58 41.90271 -72.62377 3139 ft 147 kts 355°
2026-04-25 14:58 41.91258 -72.62332 3169 ft 139 kts 11°
2026-04-25 14:59 41.92275 -72.62273 2938 ft 147 kts
2026-04-25 14:59 41.93271 -72.62311 2893 ft 145 kts
2026-04-25 14:59 41.94200 -72.62026 2894 ft 136 kts 39°
2026-04-25 14:59 41.94939 -72.61241 2543 ft 123 kts 35°
2026-04-25 15:00 41.95740 -72.61003 2123 ft 113 kts 359°
2026-04-25 15:00 41.96447 -72.61362 1721 ft 112 kts 321°
2026-04-25 15:00 41.97024 -72.62038 1357 ft 108 kts 318°
2026-04-25 15:00 41.97462 -72.62779 1060 ft 99 kts 280°
2026-04-25 15:01 41.97351 -72.63598 907 ft 81 kts 242°
2026-04-25 15:01 41.97068 -72.64238 675 ft 80 kts 236°
2026-04-25 15:01 41.96755 -72.64802 516 ft 74 kts 228°
2026-04-25 15:01 41.96425 -72.65311 391 ft 75 kts 225°
2026-04-25 15:02 41.96070 -72.65827 351 ft 73 kts 227°
2026-04-25 15:02 41.95720 -72.66337 282 ft 73 kts 225°
2026-04-25 15:02 41.95373 -72.66816 226 ft 68 kts 223°
2026-04-25 15:02 41.95029 -72.67256 175 ft 70 kts 222°
2026-04-25 15:03 41.94669 -72.67728 170 ft 84 kts 225°
2026-04-25 15:03 41.94197 -72.68357 277 ft 101 kts 223°
2026-04-25 15:03 41.93659 -72.69049 410 ft 112 kts 224°
2026-04-25 15:03 41.93113 -72.69765 678 ft 108 kts 225°
2026-04-25 15:04 41.92544 -72.70448 882 ft 110 kts 210°
2026-04-25 15:04 41.91892 -72.70367 1244 ft 99 kts 132°
2026-04-25 15:04 41.91479 -72.69657 1564 ft 99 kts 128°
2026-04-25 15:04 41.91024 -72.68938 1813 ft 104 kts 135°
2026-04-25 15:05 41.90665 -72.68085 2050 ft 115 kts 88°
2026-04-25 15:05 41.91132 -72.67203 2288 ft 121 kts 41°
2026-04-25 15:05 41.91827 -72.66484 2354 ft 133 kts 39°
2026-04-25 15:06 41.93193 -72.64846 2607 ft 132 kts 49°
2026-04-25 15:06 41.93820 -72.63927 2575 ft 135 kts 53°
2026-04-25 15:06 41.94428 -72.62984 2501 ft 138 kts 53°
2026-04-25 15:06 41.95007 -72.62131 2455 ft 112 kts 51°
2026-04-25 15:07 41.95631 -72.61490 2121 ft 108 kts 17°
2026-04-25 15:07 41.96329 -72.61633 1875 ft 101 kts 329°
2026-04-25 15:07 41.96794 -72.62220 1768 ft 87 kts 314°
2026-04-25 15:07 41.97235 -72.62810 1559 ft 92 kts 311°
2026-04-25 15:08 41.97467 -72.63618 1317 ft 95 kts 270°
2026-04-25 15:08 41.97247 -72.64394 1027 ft 87 kts 225°
2026-04-25 15:08 41.96818 -72.64944 758 ft 82 kts 219°
2026-04-25 15:08 41.96413 -72.65443 531 ft 75 kts 225°
2026-04-25 15:09 41.96065 -72.65916 366 ft 69 kts 221°
2026-04-25 15:09 41.95700 -72.66365 291 ft 73 kts 224°
2026-04-25 15:09 41.94985 -72.67321 171 ft 70 kts 225°
2026-04-25 15:10 41.94633 -72.67775 170 ft 84 kts 223°
2026-04-25 15:10 41.94165 -72.68378 316 ft 96 kts 224°
2026-04-25 15:10 41.93211 -72.69637 816 ft 95 kts 222°
2026-04-25 15:11 41.92743 -72.70252 1085 ft 94 kts 221°
2026-04-25 15:11 41.92228 -72.70141 1379 ft 93 kts 125°
2026-04-25 15:11 41.91892 -72.69350 1562 ft 102 kts 120°
2026-04-25 15:12 41.91605 -72.67398 1725 ft 119 kts 59°
2026-04-25 15:12 41.92253 -72.66655 2001 ft 116 kts 24°
2026-04-25 15:12 41.92976 -72.66091 2144 ft 129 kts 43°
2026-04-25 15:12 41.93215 -72.65831 2151 ft 133 kts 43°
2026-04-25 15:13 41.94407 -72.64470 2113 ft 135 kts 46°
2026-04-25 15:13 41.95810 -72.62841 1942 ft 132 kts 40°
2026-04-25 15:13 41.96461 -72.62002 1682 ft 125 kts 52°
2026-04-25 15:14 41.97036 -72.61173 1467 ft 117 kts 30°
2026-04-25 15:14 41.97736 -72.61169 1396 ft 100 kts 334°
2026-04-25 15:14 41.98271 -72.61720 1249 ft 96 kts 320°
2026-04-25 15:14 41.98549 -72.62507 1029 ft 93 kts 268°
2026-04-25 15:15 41.98275 -72.63197 922 ft 82 kts 225°
2026-04-25 15:15 41.97831 -72.63717 739 ft 87 kts 219°
2026-04-25 15:15 41.97365 -72.64255 546 ft 90 kts 221°
2026-04-25 15:15 41.96896 -72.64907 310 ft 94 kts 224°
2026-04-25 15:16 41.96457 -72.65435 315 ft 78 kts 219°
2026-04-25 15:16 41.96077 -72.65910 284 ft 78 kts 220°
2026-04-25 15:16 41.95252 -72.66983 236 ft 77 kts 224°
2026-04-25 15:17 41.94617 -72.67804 170 ft 60 kts 226°
2026-04-25 15:17 41.94244 -72.68292 298 ft 81 kts 223°
2026-04-25 15:17 41.93817 -72.68844 485 ft 90 kts 221°
2026-04-25 15:18 41.93356 -72.69439 709 ft 95 kts 222°
2026-04-25 15:18 41.92250 -72.70367 1157 ft 102 kts 154°
2026-04-25 15:18 41.91712 -72.69756 1423 ft 103 kts 138°
2026-04-25 15:19 41.91224 -72.69026 1668 ft 107 kts 132°
2026-04-25 15:19 41.91067 -72.68765 1770 ft 106 kts 130°
2026-04-25 15:19 41.91199 -72.67335 2285 ft 112 kts 43°
2026-04-25 15:19 41.91819 -72.66643 2542 ft 121 kts 42°
2026-04-25 15:20 41.92560 -72.65900 2628 ft 138 kts 40°
2026-04-25 15:20 41.93336 -72.65179 2792 ft 136 kts 37°
2026-04-25 15:20 41.94127 -72.64500 2830 ft 128 kts 37°
2026-04-25 15:20 41.94822 -72.63834 2207 ft 129 kts 42°
2026-04-25 15:21 41.95561 -72.63615 1840 ft 115 kts 340°
2026-04-25 15:21 41.96164 -72.64274 1363 ft 112 kts 306°
2026-04-25 15:21 41.96379 -72.65217 944 ft 96 kts 263°
2026-04-25 15:21 41.96077 -72.65943 605 ft 89 kts 225°
2026-04-25 15:22 41.95625 -72.66490 370 ft 83 kts 219°
2026-04-25 15:22 41.95235 -72.66995 213 ft 76 kts 224°
2026-04-25 15:22 41.94885 -72.67455 171 ft 60 kts 224°
2026-04-25 15:22 41.94632 -72.67787 170 ft 43 kts 224°
2026-04-25 15:23 41.94438 -72.68037 175 ft 34 kts 224°
2026-04-25 15:23 41.94276 -72.68253 176 ft 32 kts 224°
2026-04-25 15:23 41.94104 -72.68474 174 ft 38 kts 226°
2026-04-25 15:23 41.93890 -72.68751 173 ft 46 kts 229°
2026-04-25 15:24 41.93822 -72.68991 176 ft 16 kts 316°
2026-04-25 15:24 41.93836 -72.69009 176 ft 0 kts 315°
2026-04-25 15:25 41.93808 -72.69157 177 ft 21 kts 225°
2026-04-25 15:25 41.93724 -72.69309 176 ft 13 kts 285°
2026-04-25 15:25 41.93777 -72.69385 175 ft 10 kts 326°
2026-04-25 15:25 41.93799 -72.69365 174 ft 0 kts 159°